Location: Buckland
(65.9785°N, 161.1281°W)
Time: 07:18:05
(UTC+00:00)

Transit 2A Rocket - Pass Details

Date: 03 December 2020
Orbit: 592 x 910 km, 66.7° (Epoch: 21 January)

Event Time Altitude Azimuth Distance (km) Brightness Sun altitude
Exits shadow 12:33:40 12° 68° (ENE) 2,200 7.8 -42.2°
Drops below altitude 10° 12:33:58 10° 66° (ENE) 2,299 8.0 -42.2°
Sets 12:36:23 0° 58° (ENE) 3,173 8.9 -42.1°
